DECAYED

STARLINK-31155, 58728 (Decayed)

Orbit data source: Space-Track

STARLINK-31155, 58728 was a payload satellite owned by SpaceX/Seattle (US) in LEO that was launched on Sun, 07 Jan 2024 UTC via an FALCON 9 launch vehicle from the Air Force Eastern Test Range (AFETR). Payload-class satellites include a variety of spacecraft equipped with specific instruments for various scientific and technological missions. These include communications satellites like Starlink; space stations such as the ISS; scientific satellites like the Hubble; Earth observation satellites from companies like Planet Labs, Umbra, and HawkEye 360; GPS; miniature CubeSats for education and research; and military/defense satellites.

Not visible in the next 10 days
Identifier
58728, 2024-005A
Orbit
Decayed
Country
Flag of USUS
Related business
Manufacturer
SpaceX/Seattle
Mission
Decayed Commercial Communications
Bus & Motor
STARLINK V2M, Unknown motor
Mass
730 kg wet, ~700 kg dry
Launch date (UTC)
2024-01-07 (2 years ago)
Launch vehicle
FALCON 9
Launch site
Air Force Eastern Test Range (AFETR)
Object type
Payload
Rocket body
Debris
Shape & HBR
Box + 2 Pan, 17.7 m
Radar Cross Section
33.884 m², Large (>1 m²)

Expand to show TLE details & history
Last TLE update: 1 year ago

TLE from 1 year ago
0 STARLINK-31155
1 58728U 24005A   25090.40950584  .02605097  89416-5  11712-2 0  9998
2 58728  42.9870 250.9910 0010941 323.4490 128.5854 16.21029081 69208
Epoch: 2025-03-31T09:49Z
TLE epoch observation values (Epoch: 2025-03-31T09:49:41.304Z)
Latitude
43.1137°
Longitude
7.45998°
Altitude
224.335 km
Speed
7.776 km/s
True Right ascension
22h 55m 37s
True Declination
42° 55' 42"
Sunlit
Object was in daylight at epoch
Visualization orbit readout
Latitude
Unknown
Longitude
Unknown
Altitude
Unknown
Speed
Unknown
Apparent Right ascension
Unknown
Apparent Declination
Unknown
Sunlit
N/A
Visualization observer readout
Local Sidereal Time
21:24:11
Azimuth
Unknown
Elevation
Unknown
Doppler factor
Unknown
Orbital elements
Apogee altitude
226.003 km
Perigee altitude
211.567 km
Semi-major axis
6,596.922 km
Eccentricity
0.00109
Inclination
42.987°
RAAN
250.991°
Arg. of periapsis
323.449°
True anomaly
128.68332°
Mean anomaly
128.5854°
Eccentric anomaly
128.63437°
Mean motion
4.05071 °/min
Orbital period
88.87 mins
BSTAR
0.0011712
Loading maneuver chart data...
Computing Atmospheric mass density...
Loading historical data...
Loading historical data...
Loading historical data...
Loading historical data...
Loading historical data...
Loading historical data...
Loading historical data...

Documentation

Showing up to 5 results
|